Location: Newark
(40.3417°N, 75.9264°W)
Time: 21:01:21
(UTC+00:00)

Envisat - Visible Passes

Search period start: 27 February 2020 00:00
Search period end: 08 March 2020 00:00
Orbit: 764 x 766 km, 98.1° (Epoch: 25 February)

Date Brightness Start Highest point End Pass type
(mag) Time Alt. Az. Time Alt. Az. Time Alt. Az.
27 Feb 6.5 00:23:38 10° WSW 00:25:28 12° W 00:27:18 10° WNW visible
27 Feb 5.5 10:50:47 10° NE 10:55:04 27° E 10:59:20 10° SSE visible
27 Feb 5.4 23:44:03 10° SSW 23:48:19 27° W 23:52:38 10° NW visible
28 Feb 6.6 10:16:09 10° ENE 10:17:56 12° E 10:19:42 10° ESE visible
01 Mar 6.2 00:11:05 10° SW 00:14:02 15° W 00:17:00 10° NW visible
01 Mar 5.9 10:39:50 10° NE 10:43:41 21° E 10:47:30 10° SE visible
01 Mar 5.0 23:32:22 10° SSW 23:36:57 34° W 23:41:35 10° NNW visible
03 Mar 4.9 11:04:37 10° NNE 11:09:21 37° E 11:14:01 10° SSE visible
03 Mar 6.0 23:58:59 10° SW 00:02:38 20° W 00:06:17 10° NW visible
04 Mar 6.2 10:29:03 10° NE 10:32:17 17° E 10:35:29 10° SE visible
04 Mar 4.5 23:20:47 10° S 23:25:36 44° W 23:30:28 10° NNW visible
06 Mar 6.6 00:27:19 10° W 00:28:24 11° W 00:29:27 10° WNW visible
06 Mar 5.4 10:53:33 10° NE 10:57:58 29° E 11:02:22 10° SSE visible
06 Mar 5.6 23:47:06 10° SSW 23:51:14 25° W 23:55:23 10° NW visible
07 Mar 6.4 10:18:33 10° ENE 10:20:51 13° E 10:23:08 10° ESE visible
